Regional Weather Roundup
Issued by NWS Charleston, WV

Home | Current Version | Previous Version | Text Only | Print | Product List | Glossary Off
Versions: 1 2 3 4 5 6 7 8 9 10 11 12 13 14 15 16 17 18 19 20 21 22 23 24 25 26 27 28 29 30 31 32 33 34 35 36 37 38 39 40 41 42 43 44 45 46 47 48 49 50

000
ASUS41 KRLX 251410
RWRRLX
West Virginia Regional Weather Roundup
National Weather Service Charleston WV
1000 AM EDT THU AUG 25 2016

Note: "fair" indicates few or no clouds below 12,000 feet with no
significant weather and/or obstructions to visibility.

WVZ003-251500-
Northern Panhandle of West Virginia

CITY           SKY/WX    TMP DP  RH WIND       PRES   REMARKS
WHEELING       CLOUDY    76  71  85 W5        30.10F
$$

WVZ009-251500-
Northwest West Virginia

CITY           SKY/WX    TMP DP  RH WIND       PRES   REMARKS
PARKERSBURG    CLOUDY    79  72  79 SW5       30.13F
$$

WVZ006-251500-
Western West Virginia

CITY           SKY/WX    TMP DP  RH WIND       PRES   REMARKS
HUNTINGTON     MOSUNNY   80  72  76 SW8       30.13F
$$

WVZ015-251500-
West Central West Virginia

CITY           SKY/WX    TMP DP  RH WIND       PRES   REMARKS
CHARLESTON     PTSUNNY   80  70  71 SW9       30.14S
$$

WVZ022-031-251500-
North Central West Virginia

CITY           SKY/WX    TMP DP  RH WIND       PRES   REMARKS
CLARKSBURG     CLOUDY    74  71  91 S7        30.14F
MORGANTOWN     CLOUDY    74  71  91 SW6       30.14F
$$

WVZ025-035-042-045-251500-
Southern West Virginia

CITY           SKY/WX    TMP DP  RH WIND       PRES   REMARKS
BECKLEY        PTSUNNY   75  68  78 W9        30.25S
LOGAN          CLOUDY    73  70  88 CALM      30.19S
BLUEFIELD      CLOUDY    71  67  87 W5        30.29R
LEWISBURG      CLOUDY    72  67  83 SW3       30.24R
$$

WVZ047-251500-
Northern Mountains of West Virginia

CITY           SKY/WX    TMP DP  RH WIND       PRES   REMARKS
ELKINS         LGT RAIN  72  69  90 SE3       30.20S FOG
$$

WVZ052-251500-
Eastern Panhandle of West Virginia

CITY           SKY/WX    TMP DP  RH WIND       PRES   REMARKS
MARTINSBURG    MOSUNNY   79  70  74 S10       30.08F
PETERSBURG     CLOUDY    73  71  95 CALM      30.13S
$$




USA.gov is the U.S. government's official web portal to all federal, state and local government web resources and services.